Aurora, OR

3:03 AM PST on January 19, 2017 (GMT -0800)
Aurora State

Weather History for KUAO - January, 2013

Change the Weather History Date:

Friday, January 25, 2013

  Actual Average Record
Temperature  
Mean Temperature 43 °F -  
Max Temperature 52 °F - 57 °F (2003)
Min Temperature 35 °F - 25 °F (2014)
Degree Days  
Heating Degree Days 21    
Month to date heating degree days 744  
Since 1 July heating degree days 2403  
Cooling Degree Days 0    
Month to date cooling degree days 0  
Year to date cooling degree days 0  
Moisture  
Dew Point 43 °F    
Average Humidity 95    
Maximum Humidity 100    
Minimum Humidity 89    
Precipitation  
Precipitation 0.20 in - 1.12 in (1964)
Month to date precipitation 1.21  
Year to date precipitation 1.21  
Sea Level Pressure  
Sea Level Pressure 30.05 in    
Wind  
Wind Speed 1 mph (SW)    
Max Wind Speed 7 mph    
Max Gust Speed 8 mph    
Visibility 4 miles    
Events Fog , Rain    
T = Trace of Precipitation, MM = Missing Value Source: NWS Daily Summary

Daily Weather History Graph

Daily Weather History Graph

Search for Another Location

Airport or City:

Trip Planner

Search our weather history database for the weather conditions in past years. The results will help you decide how hot, cold, wet, or windy it might be!

Date:

Astronomy

Jan. 25, 2013 Rise Set
Actual Time 7:38 AM PST 5:08 PM PST
Civil Twilight 7:06 AM PST 5:40 PM PST
Nautical Twilight 6:30 AM PST 6:16 PM PST
Astronomical Twilight 5:55 AM PST 6:51 PM PST
Moon 4:11 PM PST (1/25) 6:22 AM PST (1/25)
Length of Visible Light 10h 34m
Length of Day
9h 30m
Waxing Gibbous, 98% of the Moon is Illuminated
Jan 25
Waxing Gibbous
Jan 26
Full
Feb 3
Last Quarter
Feb 9
New
Feb 17
First Quarter

Hourly Weather History & Observations

Time (PST) Temp. Windchill Dew Point Humidity Pressure Visibility Wind Dir Wind Speed Gust Speed Precip Events Conditions
12:14 AM 39.2 °F - 39.2 °F 100% 30.15 in 2.5 mi Calm Calm - 0.01 in Rain Light Rain
12:53 AM 39.0 °F - 39.0 °F 100% 30.14 in 2.5 mi Calm Calm - 0.03 in Rain Light Rain
1:07 AM 39.2 °F - 39.2 °F 100% 30.14 in 3.0 mi Calm Calm - 0.01 in Rain Light Rain
1:15 AM 39.2 °F - 39.2 °F 100% 30.14 in 4.0 mi Calm Calm - 0.01 in Rain Light Rain
1:42 AM 39.2 °F - 39.2 °F 100% 30.13 in 3.0 mi Calm Calm - 0.02 in Rain Light Rain
1:49 AM 39.2 °F - 39.2 °F 100% 30.13 in 2.0 mi Calm Calm - 0.02 in Rain Light Rain
1:53 AM 39.9 °F - 39.0 °F 97% 30.13 in 2.0 mi Calm Calm - 0.03 in Rain Rain
2:07 AM 39.2 °F - 39.2 °F 100% 30.13 in 2.5 mi Calm Calm - 0.00 in Rain Light Rain
2:17 AM 39.2 °F - 39.2 °F 100% 30.13 in 3.0 mi Calm Calm - 0.00 in Rain Light Rain
2:24 AM 39.2 °F - 39.2 °F 100% 30.13 in 3.0 mi Calm Calm - 0.00 in   Overcast
2:49 AM 41.0 °F - 39.2 °F 93% 30.12 in 2.5 mi Calm Calm - 0.01 in   Overcast
2:53 AM 41.0 °F - 39.9 °F 96% 30.12 in 2.5 mi Calm Calm - 0.01 in   Overcast
3:00 AM 41.0 °F - 39.2 °F 93% 30.11 in 3.0 mi Calm Calm - 0.00 in Rain Light Rain
3:07 AM 41.0 °F - 41.0 °F 100% 30.11 in 4.0 mi Calm Calm - 0.00 in Rain Light Rain
3:16 AM 39.2 °F - 39.2 °F 100% 30.11 in 3.0 mi Calm Calm - 0.01 in Rain Light Rain
3:53 AM 41.0 °F - 39.9 °F 96% 30.11 in 3.0 mi Calm Calm - 0.01 in   Overcast
4:18 AM 41.0 °F - 41.0 °F 100% 30.11 in 2.5 mi Calm Calm - N/A   Overcast
4:42 AM 41.0 °F - 41.0 °F 100% 30.10 in 1.5 mi Calm Calm - 0.02 in Rain Light Rain
4:53 AM 41.0 °F - 41.0 °F 100% 30.11 in 1.5 mi Calm Calm - 0.04 in Rain Rain
5:16 AM 41.0 °F - 41.0 °F 100% 30.10 in 2.0 mi Calm Calm - 0.01 in Rain Light Rain
5:53 AM 42.1 °F - 42.1 °F 100% 30.11 in 2.0 mi Calm Calm - 0.02 in   Overcast
6:21 AM 42.8 °F - 42.8 °F 100% 30.10 in 1.2 mi Calm Calm - N/A   Overcast
6:35 AM 42.8 °F - 42.8 °F 100% 30.09 in 0.8 mi Calm Calm - N/A   Mist
6:42 AM 42.8 °F - 42.8 °F 100% 30.09 in 1.0 mi Calm Calm - N/A   Mist
6:49 AM 42.8 °F - 42.8 °F 100% 30.09 in 0.5 mi Calm Calm - N/A Fog Fog
6:53 AM 42.1 °F - 42.1 °F 100% 30.09 in 0.5 mi Calm Calm - N/A Fog Fog
7:53 AM 43.0 °F - 43.0 °F 100% 30.09 in 0.8 mi Calm Calm - N/A   Mist
8:14 AM 42.8 °F - 42.8 °F 100% 30.08 in 0.2 mi Calm Calm - 0.00 in Fog , Rain Light Rain
8:35 AM 44.6 °F - 44.6 °F 100% 30.09 in 0.8 mi Calm Calm - 0.02 in Rain Rain
8:40 AM 44.6 °F - 44.6 °F 100% 30.09 in 1.0 mi Calm Calm - 0.02 in Rain Light Rain
8:53 AM 44.1 °F - 44.1 °F 100% 30.09 in 1.2 mi Calm Calm - 0.02 in Rain Light Rain
9:01 AM 44.6 °F - 44.6 °F 100% 30.08 in 1.0 mi Calm Calm - 0.01 in Rain Rain
9:27 AM 44.6 °F - 44.6 °F 100% 30.08 in 2.0 mi Calm Calm - 0.02 in   Overcast
9:43 AM 44.6 °F - 44.6 °F 100% 30.08 in 1.8 mi Calm Calm - 0.02 in Rain Light Rain
9:53 AM 45.0 °F - 45.0 °F 100% 30.08 in 2.0 mi Calm Calm - 0.02 in Rain Light Rain
10:30 AM 46.4 °F - 46.4 °F 100% 30.08 in 1.8 mi Calm Calm - 0.01 in Rain Light Rain
10:41 AM 46.4 °F - 46.4 °F 100% 30.08 in 2.0 mi Calm Calm - 0.02 in Rain Light Rain
10:53 AM 46.0 °F - 46.0 °F 100% 30.08 in 3.0 mi Calm Calm - 0.02 in Rain Light Rain
11:53 AM 48.0 °F - 48.0 °F 100% 30.06 in 6.0 mi Calm Calm - 0.00 in   Overcast
12:29 PM 48.2 °F - 48.2 °F 100% 30.04 in 8.0 mi Calm Calm - N/A   Overcast
12:53 PM 48.9 °F - 48.0 °F 97% 30.04 in 10.0 mi Calm Calm - N/A   Overcast
1:35 PM 50.0 °F - 48.2 °F 94% 30.02 in 10.0 mi WSW 3.5 mph - N/A   Overcast
1:53 PM 51.1 °F - 48.9 °F 92% 30.02 in 10.0 mi WSW 3.5 mph - N/A   Overcast
2:21 PM 50.0 °F - 48.2 °F 94% 30.01 in 10.0 mi Calm Calm - N/A   Overcast
2:53 PM 51.1 °F - 48.9 °F 92% 30.01 in 10.0 mi SW 3.5 mph - N/A   Overcast
3:07 PM 51.8 °F - 48.2 °F 88% 30.00 in 10.0 mi WSW 3.5 mph - N/A   Overcast
3:20 PM 51.8 °F - 48.2 °F 88% 30.00 in 10.0 mi Calm Calm - N/A   Mostly Cloudy
3:53 PM 51.1 °F - 48.9 °F 92% 30.00 in 10.0 mi Calm Calm - N/A   Overcast
4:02 PM 51.8 °F - 48.2 °F 88% 29.99 in 10.0 mi Calm Calm - N/A   Overcast
4:13 PM 51.8 °F - 48.2 °F 88% 29.99 in 10.0 mi Calm Calm - N/A   Overcast
4:41 PM 51.8 °F - 48.2 °F 88% 29.99 in 10.0 mi Calm Calm - N/A   Overcast
4:53 PM 50.0 °F - 48.0 °F 93% 30.00 in 10.0 mi Calm Calm - N/A   Mostly Cloudy
5:10 PM 48.2 °F - 48.2 °F 100% 29.99 in 10.0 mi Calm Calm - N/A   Scattered Clouds
5:53 PM 48.0 °F - 46.9 °F 96% 29.99 in 10.0 mi Calm Calm - N/A   Partly Cloudy
6:11 PM 44.6 °F - 44.6 °F 100% 29.99 in 1.8 mi Calm Calm - N/A   Clear
6:14 PM 44.6 °F - 44.6 °F 100% 29.99 in 0.8 mi Calm Calm - N/A   Mist
6:19 PM 44.6 °F - 44.6 °F 100% 29.99 in 0.2 mi Calm Calm - N/A Fog Fog
6:42 PM 42.8 °F - 42.8 °F 100% 29.99 in 0.2 mi Calm Calm - N/A Fog Fog
6:53 PM 44.1 °F - 43.0 °F 96% 29.99 in 0.5 mi Calm Calm - N/A Fog Fog
7:07 PM 44.6 °F 43.1 °F 42.8 °F 93% 29.99 in 1.0 mi North 3.5 mph - N/A   Mostly Cloudy
7:14 PM 44.6 °F 43.1 °F 44.6 °F 100% 29.99 in 0.2 mi North 3.5 mph - N/A Fog Fog
7:27 PM 44.6 °F - 44.6 °F 100% 29.98 in 0.2 mi Calm Calm - N/A Fog Fog
7:53 PM 45.0 °F - 44.1 °F 97% 29.99 in 0.2 mi Calm Calm - N/A Fog Fog
8:38 PM 41.0 °F 39.0 °F 41.0 °F 100% 29.98 in 0.2 mi South 3.5 mph - N/A Fog Fog
8:53 PM 39.9 °F - 39.9 °F 100% 29.99 in 0.2 mi Calm Calm - N/A Fog Fog
9:20 PM 39.2 °F - 39.2 °F 100% 29.99 in 0.5 mi Calm Calm - N/A Fog Fog
9:30 PM 37.4 °F - 37.4 °F 100% 29.99 in 0.2 mi Calm Calm - N/A Fog Fog
9:53 PM 37.0 °F - 36.0 °F 96% 30.00 in 0.2 mi Calm Calm - N/A Fog Fog
10:15 PM 35.6 °F 32.8 °F 35.6 °F 100% 29.99 in 0.5 mi South 3.5 mph - N/A Fog Fog
10:24 PM 37.4 °F 34.9 °F 37.4 °F 100% 29.99 in 2.0 mi South 3.5 mph - N/A   Overcast
10:33 PM 39.2 °F - 39.2 °F 100% 29.99 in 7.0 mi Calm Calm - N/A   Overcast
10:53 PM 39.0 °F 36.8 °F 39.0 °F 100% 29.99 in 10.0 mi South 3.5 mph - N/A   Overcast
11:35 PM 41.0 °F 39.0 °F 41.0 °F 100% 29.99 in 10.0 mi SW 3.5 mph - N/A   Overcast
11:53 PM 42.1 °F 39.2 °F 41.0 °F 96% 29.99 in 10.0 mi SSW 4.6 mph - N/A   Scattered Clouds